GW4332 Weather Reports


time (UTC)temp
F
wind
direction
speed
knots
gust
knots
rain 1hr
in
rain 24hr
in
rain mn
in
humidity
%
barometer
mb
20260505022029 49 69 6.1 11.3 0.00 0.00 0.00 87 1012.4
20260505021029 50 52 5.2 9.6 0.00 0.00 0.00 87 1012.4
20260505020029 50 47 7.0 13.9 0.00 0.00 0.00 87 1012.5
20260505015029 50 55 7.8 12.2 0.00 0.00 0.00 87 1012.6
20260505014029 50 47 7.0 10.4 0.00 0.00 0.00 87 1012.6
20260505013029 50 43 6.1 11.3 0.00 0.00 0.00 87 1012.6
20260505012030 50 46 6.1 12.2 0.00 0.00 0.00 87 1012.7
20260505011030 50 40 6.1 11.3 0.00 0.00 0.00 87 1012.9
20260505010030 50 38 5.2 10.4 0.00 0.00 0.00 87 1013.0
20260505005030 50 40 6.1 11.3 0.00 0.00 0.00 87 1013.0
20260505004030 51 44 5.2 11.3 0.00 0.00 0.00 87 1013.1
20260505003029 51 30 7.0 12.2 0.00 0.00 0.00 87 1012.9
20260505002029 51 38 6.1 12.2 0.00 0.00 0.00 87 1013.0
20260505001029 51 26 6.1 12.2 0.00 0.00 0.00 87 1013.1
20260505000030 51 32 7.0 12.2 0.00 0.00 0.00 87 1013.1
20260504235030 51 25 6.1 11.3 0.00 0.00 0.00 87 1013.1
20260504234030 51 30 6.1 12.2 0.00 0.00 0.00 87 1013.3
20260504233030 51 43 6.1 10.4 0.00 0.00 0.00 87 1013.2
20260504232029 51 32 7.0 12.2 0.00 0.00 0.00 87 1013.3
20260504231029 51 34 7.0 11.3 0.00 0.00 0.00 86 1013.5
20260504230029 52 47 6.1 11.3 0.00 0.00 0.00 86 1013.5
20260504225029 52 34 7.8 12.2 0.00 0.00 0.00 86 1013.5
20260504224030 52 37 7.8 12.2 0.00 0.00 0.00 86 1013.5
20260504223030 52 37 7.8 12.2 0.00 0.00 0.00 86 1013.5
20260504222030 53 24 6.1 11.3 0.00 0.00 0.00 86 1013.7
20260504221030 53 15 7.0 11.3 0.00 0.00 0.00 86 1013.8
20260504220030 53 23 5.2 9.6 0.00 0.00 0.02 86 1013.8
20260504215030 53 40 6.1 9.6 0.00 0.00 0.02 86 1013.9
20260504214030 53 46 7.0 11.3 0.00 0.00 0.02 86 1013.9
20260504213030 53 42 7.0 10.4 0.00 0.00 0.02 86 1014.0
20260504212030 54 40 5.2 9.6 0.00 0.00 0.02 86 1014.0
20260504211030 54 32 7.8 13.0 0.00 0.00 0.02 86 1013.9
20260504210030 54 40 7.8 13.0 0.00 0.00 0.02 86 1014.1
20260504205030 54 47 6.1 10.4 0.00 0.00 0.02 86 1014.0
20260504204030 54 42 7.0 10.4 0.00 0.00 0.02 86 1013.9
20260504203030 55 30 6.1 11.3 0.00 0.00 0.02 86 1013.8
20260504202030 55 32 7.8 12.2 0.00 0.00 0.02 86 1013.8
20260504201030 55 39 7.8 12.2 0.00 0.00 0.02 86 1013.8
20260504200030 55 34 5.2 8.7 0.00 0.00 0.02 86 1013.7
20260504195030 55 43 7.8 13.0 0.00 0.00 0.02 86 1013.6
20260504194030 56 31 7.8 13.0 0.00 0.00 0.02 86 1013.5
20260504193030 56 14 6.1 11.3 0.00 0.00 0.02 86 1013.4
20260504192030 56 25 7.8 15.6 0.00 0.00 0.02 86 1013.4
20260504191030 56 18 7.8 15.6 0.00 0.00 0.02 85 1013.3
20260504190030 57 12 7.8 12.2 0.00 0.00 0.02 85 1013.3
20260504185029 57 12 8.7 14.8 0.00 0.00 0.02 85 1013.2
20260504184029 57 15 7.8 13.0 0.00 0.00 0.02 85 1013.4
20260504183030 58 3 9.6 14.8 0.00 0.00 0.02 85 1013.2
20260504182030 58 1 9.6 14.8 0.00 0.00 0.02 84 1013.1
20260504181030 58 7 9.6 13.9 0.00 0.00 0.02 83 1013.1
20260504180030 59 3 9.6 14.8 0.00 0.00 0.02 83 1013.1
20260504175030 59 359 8.7 14.8 0.00 0.00 0.02 83 1013.1
20260504174030 60 349 8.7 13.0 0.00 0.00 0.02 83 1013.1
20260504173030 60 5 7.8 12.2 0.00 0.00 0.02 83 1013.2
20260504172030 60 339 8.7 13.0 0.00 0.00 0.02 83 1013.0
20260504171029 60 4 7.8 13.9 0.00 0.00 0.02 83 1013.1
20260504151030 61 347 8.7 11.3 0.00 0.00 0.02 83 1013.0
20260504141030 62 355 7.0 11.3 0.00 0.00 0.02 83 1013.3
20260504081030 58 179 0.9 2.6 0.00 0.00 0.02 95 1013.0
20260504045030 55 262 0.0 0.9 0.00 0.00 0.02 94 1011.8
20260504044030 55 262 1.7 3.5 0.00 0.00 0.02 94 1011.8
20260504043029 55 275 3.5 6.1 0.00 0.00 0.02 94 1011.8
20260504042030 55 255 3.5 6.1 0.00 0.00 0.02 94 1011.8
20260504041030 55 252 4.3 6.1 0.00 0.00 0.02 94 1011.8
20260504040029 55 257 5.2 7.8 0.00 0.00 0.02 94 1011.7
20260504035029 56 250 5.2 7.8 0.00 0.00 0.02 94 1011.6
20260504034030 56 256 3.5 6.1 0.00 0.00 0.02 95 1011.7
20260504033030 56 236 2.6 6.1 0.00 0.00 0.02 94 1011.6
20260504032029 56 185 0.9 2.6 0.00 0.00 0.02 94 1011.7
20260504031030 56 162 0.0 2.6 0.00 0.00 0.02 94 1011.7
20260504030030 56 214 1.7 4.3 0.00 0.00 0.02 94 1011.6
20260504025029 56 217 3.5 7.0 0.00 0.00 0.02 94 1011.6
20260504024030 56 222 3.5 7.8 0.00 0.00 0.02 94 1011.6
20260504023030 56 242 3.5 7.8 0.00 0.00 0.02 94 1011.5